Tracking 19795 objects as of 18-Jul-2019
HD Live streaming from Space Station
objects crossing your sky now

FENGYUN 1C DEB

Track FENGYUN 1C DEB now!
10-day predictions


NORAD ID: 33709
Int'l Code: 1999-025DGW
Perigee: 514.1 km
Apogee: 571.4 km
Inclination: 99.0 °
Period: 95.4 minutes
Semi major axis: 6913 km
RCS: 0.0093 m2 (small)
Launch date: May 10, 1999
Source: People's Republic of China (PRC)
Launch site: Taiyaun Space Center, China (TSC)

Note: This is SATELLITE DEBRIS
aabbcc
Your satellite tracking list
Your tracking list is empty




NASA's NSSDC Master Catalog

Two Line Element Set (TLE):
1 33709U 99025DGW 19199.32369950  .00006782  00000-0  41193-3 0  9997
2 33709  99.0372 330.2543 0041472 109.3564 251.2152 15.10198408603701
Source of the keplerian elements: AFSPC